Theta_e
313 316 315 314 314 314 314 314 316 317 318 318 317 317 319 319 316 315 315 314 314 316 316 316 316 316 317 317 315 314 315 315 315 315 316 316 316 316 316 317 317 316 316 316 316 316 315 315 315 315 315 315 315 314 314 315 315 315 315 315 315 315 316 316 316 316 316 316 316 316 316 317 317 318 318 318 318 318 318 318 319 319 318 319 319 320
313 316 315 313 314 314 314 314 316 316 317 318 317 316 318 319 317 315 315 314 314 316 317 316 316 316 317 317 317 315 315 315 315 315 315 316 316 316 316 316 317 317 317 317 316 316 316 315 315 315 314 315 315 315 314 314 314 314 315 315 315 315 315 316 315 316 316 316 317 316 317 317 316 316 316 316 317 317 318 319 321 320 320 321 320 321
314 315 315 314 314 315 315 315 315 316 317 318 319 318 318 319 317 315 314 314 314 314 316 318 317 317 317 318 317 315 315 316 316 317 316 316 316 316 317 317 318 318 317 317 317 316 316 315 315 315 314 314 314 315 314 314 314 314 314 314 315 315 315 315 316 316 317 317 317 317 317 317 317 317 317 318 319 319 319 318 319 320 321 321 321 323
315 315 314 314 314 315 315 315 315 316 316 319 320 319 319 319 318 316 314 314 314 313 315 317 317 317 316 317 317 315 316 317 317 317 317 317 318 317 318 318 318 318 317 317 316 316 316 315 315 315 315 315 314 314 314 314 314 314 314 314 314 315 315 315 315 316 317 318 318 318 319 319 319 319 319 320 321 322 320 319 320 320 319 320 322 325
315 314 312 314 315 315 315 315 316 315 315 320 321 320 321 319 319 319 315 314 314 314 315 316 316 319 317 316 317 315 314 315 315 316 316 316 316 316 316 316 316 316 316 316 316 315 315 315 315 315 315 315 315 315 314 314 314 314 314 314 314 314 315 315 315 315 316 318 318 318 319 319 319 319 318 318 319 320 320 320 322 322 322 323 324 326
315 312 311 314 315 316 315 314 318 318 316 320 321 320 319 318 318 318 316 315 315 316 317 315 316 323 321 315 316 316 314 315 314 314 314 315 315 314 314 314 314 314 314 314 314 314 314 315 315 315 315 315 315 315 315 315 314 314 314 314 314 314 315 315 314 315 315 316 317 317 317 317 317 317 318 318 318 318 318 318 319 321 321 323 324 324
313 310 312 317 317 318 318 315 318 320 316 317 321 321 317 319 320 317 317 319 317 316 316 315 316 321 322 317 316 316 315 316 315 314 315 315 316 315 315 316 315 315 315 314 313 313 313 314 314 314 314 314 315 314 314 315 314 314 314 314 314 314 314 315 314 315 315 315 315 315 315 314 315 316 318 318 318 317 317 317 318 319 320 319 320 320
312 311 316 318 318 320 318 316 317 317 314 318 323 323 317 319 322 320 319 320 320 317 315 316 317 317 321 320 316 315 315 317 317 316 316 316 316 316 316 316 315 315 315 314 314 313 312 313 313 313 313 313 313 313 313 313 314 314 314 314 314 314 314 314 314 314 314 314 314 314 314 314 315 316 318 319 319 317 316 317 317 317 318 318 318 318
313 315 317 317 318 319 318 319 322 319 316 319 323 324 319 318 322 322 322 321 320 319 318 318 317 315 320 321 314 314 315 315 317 318 317 316 316 316 316 316 315 314 314 314 314 313 312 312 312 312 313 313 312 312 312 312 312 313 313 313 313 313 313 313 313 313 313 313 313 313 313 314 315 316 317 318 318 318 316 317 317 316 317 317 316 317
315 313 314 317 319 318 317 318 323 325 319 318 321 325 324 323 323 321 324 324 319 319 321 321 317 316 320 322 315 314 315 314 316 318 317 316 316 316 316 315 315 315 314 314 314 314 313 313 313 313 313 313 313 312 312 312 312 312 312 312 312 312 312 312 312 312 312 313 313 313 313 314 315 315 316 316 316 316 316 316 316 315 315 315 315 315
312 310 313 316 315 314 314 314 319 323 318 317 320 323 323 323 322 321 323 323 318 320 323 320 317 315 319 324 318 314 316 316 317 318 317 316 316 316 316 315 315 315 315 315 314 314 314 314 313 314 313 313 313 313 312 312 312 312 312 312 312 312 312 312 312 312 313 313 313 313 314 314 315 315 315 315 315 315 315 315 314 314 314 314 314 313
312 313 314 313 311 311 315 315 316 317 317 320 322 320 320 320 320 320 319 319 319 321 319 316 317 317 318 322 317 313 315 316 317 319 317 316 315 315 315 315 315 315 315 315 315 315 314 314 314 314 314 314 314 313 313 313 312 312 312 312 312 312 312 312 312 313 313 313 314 314 315 315 315 315 315 315 315 315 314 314 314 314 314 313 313 313
317 316 315 314 311 312 316 317 316 317 318 321 321 319 322 322 318 319 319 319 321 319 314 313 317 318 317 317 314 314 315 316 317 317 316 315 315 315 315 315 315 315 315 315 314 314 314 314 314 314 314 314 314 313 313 313 313 312 312 312 312 312 312 313 313 314 314 314 314 315 315 315 315 315 315 314 314 314 314 314 314 313 313 313 313 313
320 317 316 316 314 312 315 316 316 318 318 320 318 318 325 322 317 318 320 319 319 316 313 314 316 317 317 315 314 315 314 315 316 316 316 316 315 315 315 314 315 315 315 315 314 314 314 314 314 314 314 314 314 314 314 314 314 314 314 314 313 314 314 314 314 314 315 314 314 314 314 314 314 314 314 314 314 313 313 313 313 313 313 313 313 313
319 317 316 317 315 313 315 315 316 318 319 320 320 320 323 321 319 319 319 322 322 317 313 312 315 319 318 315 314 312 311 313 315 315 316 316 315 315 314 314 314 315 315 315 315 315 315 315 315 315 315 315 315 315 314 315 315 315 315 314 314 315 315 315 314 314 314 314 314 314 314 314 314 314 313 313 313 313 313 313 313 313 313 313 313 313
317 318 315 314 313 314 316 315 315 316 318 320 321 321 320 320 323 321 317 320 324 320 316 315 318 320 316 314 312 310 311 312 313 314 315 314 314 314 314 314 314 314 314 314 314 315 315 315 315 315 315 315 315 315 315 315 315 315 315 314 314 314 314 314 314 314 314 314 314 314 313 313 313 313 313 313 313 313 313 313 313 313 313 313 313 313
318 319 315 313 313 313 313 313 313 314 316 319 320 320 318 318 324 322 316 315 317 319 319 317 318 318 313 313 312 311 312 312 312 313 313 313 314 313 314 313 313 314 314 314 314 314 314 314 314 314 314 314 314 314 314 314 314 314 314 314 314 314 314 314 314 314 313 313 313 313 313 313 313 313 313 313 313 313 313 313 313 313 313 312 312 311
318 317 314 314 316 312 310 311 312 311 314 320 322 319 316 317 320 318 315 315 315 315 317 316 317 316 314 314 313 312 312 312 312 312 312 312 313 313 314 313 313 313 313 313 314 313 314 314 314 314 314 314 314 314 314 314 314 314 313 314 314 313 313 313 313 313 313 313 313 313 313 313 313 313 313 313 313 313 313 312 312 311 310 310 309 308
320 320 315 313 315 313 310 313 314 312 312 316 317 316 316 318 318 316 314 317 319 315 315 317 316 315 316 315 314 313 313 312 312 313 312 312 313 314 314 313 313 313 313 313 314 313 314 314 314 314 314 314 314 313 314 313 313 313 313 313 313 313 313 313 313 313 313 313 313 313 313 313 313 313 313 313 312 311 311 310 309 308 307 307 306 305
321 323 318 313 314 314 313 315 316 316 314 313 313 314 317 317 318 318 315 317 321 317 315 317 315 318 322 318 316 315 312 311 312 314 313 312 313 314 314 313 313 313 313 314 313 313 314 314 313 313 313 313 313 313 313 313 313 313 313 313 313 313 313 313 313 313 313 313 313 313 313 313 313 312 311 311 310 309 308 308 307 306 305 305 304 304
317 323 321 314 313 315 317 316 316 317 315 314 314 314 315 315 315 318 318 318 319 317 317 315 316 323 323 315 315 315 312 311 311 313 313 311 313 315 314 313 313 312 313 313 313 314 313 313 313 313 313 313 313 313 313 313 313 313 313 313 313 313 313 313 313 313 313 313 313 312 312 311 310 310 309 308 308 307 307 306 305 305 304 304 303 303
316 320 320 315 314 316 317 315 313 315 316 315 315 314 315 316 317 318 318 319 317 315 318 315 317 326 320 309 313 314 312 312 310 311 313 312 313 315 313 313 312 312 313 312 313 313 313 313 313 313 313 312 313 313 313 313 313 313 313 313 313 313 313 313 313 313 313 312 312 311 310 309 309 308 307 306 306 305 305 305 304 304 303 303 302 302
319 320 318 315 316 315 314 312 309 311 316 316 315 316 316 315 316 317 318 320 317 313 316 313 317 329 321 308 311 312 309 311 310 311 313 312 314 314 313 313 312 312 312 312 312 312 312 313 312 312 312 312 313 313 313 313 313 313 313 313 313 313 312 313 312 312 311 311 310 309 309 308 307 306 305 305 304 304 304 303 303 303 302 302 301 301
317 320 319 316 315 314 313 312 310 311 314 316 317 317 317 316 317 316 317 320 318 316 317 313 316 328 321 309 308 308 307 310 311 312 313 312 314 314 313 313 312 312 312 312 312 312 312 312 312 312 313 312 313 313 313 313 312 313 313 312 312 312 312 312 311 310 310 309 309 308 307 307 306 305 304 304 303 303 302 302 302 301 301 301 300 300
316 319 320 318 318 316 315 315 315 314 314 317 318 316 316 321 320 316 316 317 317 321 322 316 318 325 318 310 308 307 307 310 311 312 313 313 314 314 313 313 312 312 312 312 312 312 312 312 312 312 313 312 313 312 312 312 312 312 312 312 312 311 311 310 310 309 309 308 308 307 306 305 305 304 304 303 302 302 301 301 300 300 300 300 299 299
318 320 319 319 318 317 317 316 317 317 315 315 317 316 317 321 320 317 318 317 317 322 321 316 319 321 315 311 311 309 309 311 311 313 314 313 314 314 313 313 312 312 312 312 312 312 312 312 312 312 312 312 312 312 312 312 312 312 312 311 311 311 310 309 309 308 308 307 307 305 305 304 303 303 302 302 301 301 300 300 299 299 300 299 299 299
320 319 316 316 316 315 315 316 317 319 317 316 318 318 318 319 318 318 319 318 317 320 319 318 319 318 315 315 314 312 310 311 312 313 313 314 314 314 313 313 312 312 312 312 312 312 312 312 312 312 312 312 312 312 312 312 312 312 311 311 310 310 309 309 308 307 306 305 305 304 303 302 302 302 301 301 300 300 300 299 299 299 299 299 299 298
320 318 316 316 316 315 316 317 318 318 317 316 317 317 317 318 318 319 319 317 316 317 318 318 318 317 316 318 319 316 311 310 310 311 313 314 314 314 313 313 312 312 312 312 312 312 312 312 312 312 312 312 312 312 312 312 311 311 310 310 309 309 308 308 307 306 304 304 303 302 302 301 301 301 300 300 300 300 299 299 299 299 299 299 298 298
318 317 317 318 316 316 318 319 320 318 316 316 316 316 316 317 318 318 317 316 317 317 316 316 318 318 315 316 320 317 310 308 309 311 314 314 313 314 313 312 312 312 312 312 312 312 312 312 312 312 312 312 311 311 312 311 311 310 310 309 308 308 307 306 305 304 303 302 302 301 301 301 301 300 300 300 299 299 298 298 298 298 298 298 297 297
315 316 317 317 316 317 320 321 320 318 317 317 317 317 316 316 317 316 316 315 316 317 316 315 318 318 316 317 318 314 310 308 308 310 313 313 313 313 313 312 312 312 312 312 312 312 312 312 312 312 311 311 311 311 311 311 310 309 309 308 308 307 305 304 303 302 302 302 301 301 301 300 300 300 299 299 298 298 298 297 297 297 297 297 297 296
314 318 318 316 315 317 319 319 320 321 321 319 320 320 318 317 316 316 315 315 315 315 315 316 317 317 316 316 316 313 311 310 309 310 312 313 313 313 312 312 312 312 312 312 312 312 312 312 312 312 311 311 311 311 311 310 310 309 308 308 306 305 304 303 302 301 301 301 301 300 300 300 299 299 298 298 297 297 297 297 297 297 297 297 296 296
315 317 317 317 316 317 318 318 318 319 318 316 320 323 321 318 317 316 315 315 315 315 316 316 316 315 314 314 315 313 310 309 309 310 311 312 313 313 312 312 312 312 312 312 312 312 311 312 312 311 311 311 311 311 310 310 310 309 308 306 305 304 303 302 301 300 300 300 300 300 299 299 298 298 297 297 297 297 297 297 297 297 297 296 296 296
316 316 317 317 317 317 317 316 316 317 314 313 316 321 321 319 316 316 316 315 315 315 315 316 315 314 313 316 317 314 310 309 309 310 311 312 312 312 312 312 312 312 312 312 312 312 312 312 312 311 311 311 311 311 310 310 309 308 307 305 304 303 302 301 300 300 300 300 299 298 298 298 298 297 297 297 297 297 297 297 297 297 296 296 296 295
315 315 317 317 316 317 315 314 315 315 313 313 314 316 318 318 317 317 316 315 315 314 314 314 314 313 315 317 318 316 312 311 311 311 311 311 312 312 312 312 312 312 312 312 312 312 312 312 311 311 311 311 311 310 310 309 308 307 305 304 303 301 301 300 300 299 299 299 298 298 297 297 297 297 297 297 297 297 297 297 297 296 296 295 295 295
313 313 315 315 316 317 315 313 314 314 313 314 317 317 316 315 316 317 317 315 314 315 315 314 314 314 314 314 315 314 312 312 311 311 311 311 311 312 312 312 312 312 311 311 311 312 312 312 311 311 311 311 311 310 309 308 307 306 304 303 301 300 300 299 299 299 298 298 297 297 297 297 297 297 297 297 297 297 297 297 296 296 296 295 295 295
313 313 313 315 316 316 315 314 314 315 315 315 317 317 315 314 316 317 317 315 314 314 315 315 314 313 312 312 313 313 313 312 311 311 312 312 311 311 311 312 312 312 312 312 312 312 312 311 312 311 311 311 310 309 309 308 306 305 303 301 300 300 299 299 299 298 297 297 297 297 297 297 297 297 298 298 297 297 296 296 296 295 295 295 294 294
313 312 313 315 316 315 316 314 313 315 317 315 315 315 314 315 317 316 315 315 314 314 315 314 314 313 312 312 313 313 312 312 312 312 311 311 311 311 311 311 311 311 312 312 311 311 311 311 311 311 311 310 310 309 308 307 305 303 302 301 300 299 299 299 298 297 297 297 297 297 296 297 297 298 298 297 297 296 296 295 295 295 294 294 294 294
314 314 314 315 315 315 316 315 313 314 315 314 315 316 312 312 314 314 314 315 314 313 313 313 315 314 312 311 312 311 311 313 313 313 312 311 311 311 311 311 311 311 311 311 311 311 311 310 310 311 310 310 310 309 307 306 304 303 301 300 299 299 298 298 297 297 297 297 296 296 296 297 297 297 297 297 296 295 295 294 294 294 294 294 293 293
314 316 315 314 315 315 315 314 314 314 313 315 320 319 312 310 312 312 313 314 313 311 311 313 314 313 311 311 310 310 313 315 313 312 311 311 312 311 311 310 311 311 311 311 311 311 311 310 310 310 310 310 309 308 307 305 303 302 300 299 299 298 297 297 297 297 297 296 296 296 296 297 297 297 296 295 295 294 294 293 293 293 293 292 292 292
313 315 315 314 315 315 314 314 313 313 314 319 323 318 311 310 312 313 315 315 312 310 311 312 312 311 312 311 309 311 314 315 312 311 312 312 311 311 311 310 310 310 311 311 311 311 311 310 310 310 309 309 309 308 306 305 302 301 299 298 298 297 297 297 297 296 296 296 295 296 296 296 296 296 295 294 293 293 293 293 293 292 292 292 291 291
312 313 314 314 315 315 315 314 313 314 317 321 318 313 310 311 313 314 315 314 312 311 311 311 311 311 311 311 309 311 312 311 311 312 312 311 311 311 310 309 309 309 310 310 311 310 310 310 310 309 309 309 308 307 305 303 301 299 299 298 297 297 296 296 296 296 295 295 295 295 295 295 295 294 293 293 293 292 292 292 292 291 291 291 291 291
312 312 313 314 313 314 314 314 314 315 317 316 312 309 310 312 314 315 313 310 311 311 310 310 311 311 311 311 310 311 310 310 310 310 310 311 311 311 310 309 309 309 309 309 309 309 309 309 309 308 308 308 307 306 304 302 300 299 298 297 297 296 296 296 296 295 295 294 294 294 294 294 294 293 292 292 292 292 292 291 291 291 290 290 290 290
312 312 313 313 312 313 313 314 314 315 313 311 310 311 312 313 314 313 310 308 310 311 310 310 311 310 311 311 311 311 310 310 310 309 309 310 310 310 310 309 309 308 308 308 308 308 308 308 308 308 308 307 306 305 303 301 299 298 297 296 296 296 296 296 295 294 294 294 294 294 294 293 292 292 292 292 292 291 291 291 290 290 290 290 289 289
313 314 315 313 312 313 313 313 314 314 311 309 311 314 313 312 311 310 309 309 310 310 310 310 310 310 310 310 310 310 310 310 310 309 309 309 309 309 309 308 308 308 307 307 307 307 307 307 307 307 307 306 305 303 301 299 298 297 296 296 296 296 295 295 294 294 293 293 293 293 292 292 292 292 291 291 291 291 290 290 290 290 289 289 289 289
312 312 313 314 313 313 315 316 314 310 308 309 311 312 311 310 310 310 310 310 310 310 310 310 310 310 310 309 310 310 310 309 309 309 308 308 308 308 308 308 308 308 307 307 307 307 306 306 307 307 306 305 303 301 299 298 296 296 296 296 295 295 294 294 293 293 293 293 293 292 292 292 291 291 291 291 290 290 290 290 290 289 289 289 288 288
309 307 310 313 314 313 313 314 311 308 308 309 310 309 309 310 310 309 309 309 310 309 309 309 309 309 309 309 309 309 309 309 309 308 308 308 308 308 308 308 308 307 307 306 306 306 306 306 306 306 305 304 302 299 298 296 296 296 296 295 295 294 294 293 293 293 293 292 292 292 291 291 291 291 290 290 290 289 289 289 289 289 289 288 288 288
308 306 309 315 316 314 313 313 312 310 309 309 309 309 309 309 309 308 308 309 309 309 309 309 309 308 309 309 309 309 309 308 308 308 308 307 307 307 308 308 307 307 307 306 305 306 305 305 305 304 304 303 300 298 296 295 295 295 295 294 294 293 293 293 292 292 292 292 292 292 291 291 290 290 290 289 289 289 289 289 289 288 288 288 288 287
309 308 311 316 315 313 313 311 309 309 309 308 309 309 308 308 309 308 308 308 308 308 309 309 309 308 308 309 309 309 309 309 308 308 308 307 307 307 307 307 307 307 306 305 305 305 305 304 304 303 302 300 298 296 295 295 295 295 294 294 293 293 293 292 292 292 292 291 291 291 290 290 290 289 289 289 289 289 289 288 288 288 288 287 287 287
308 309 313 314 313 312 312 308 306 308 309 307 306 307 306 307 308 308 307 308 308 308 309 309 309 309 309 308 308 308 309 309 308 308 307 307 307 307 306 306 306 306 306 305 305 305 304 304 303 302 300 298 296 295 295 295 295 294 294 293 293 293 292 292 292 292 291 291 290 290 290 289 289 289 289 289 289 289 288 288 288 288 288 287 287 287
307 311 312 313 313 313 311 307 307 311 310 305 303 304 304 305 306 307 307 308 308 308 309 309 309 308 308 308 308 308 308 308 308 307 307 307 307 306 306 306 306 306 305 305 304 304 303 302 301 299 297 296 295 295 295 295 294 294 294 293 293 292 292 292 291 291 291 290 290 289 289 289 289 289 289 289 288 288 288 288 288 287 287 287 287 286
306 309 310 311 312 309 305 303 305 307 305 301 301 302 303 303 304 305 305 306 306 307 307 307 307 307 307 307 307 307 307 307 307 307 307 306 306 306 306 306 306 306 305 305 304 303 302 300 299 297 295 295 295 294 294 294 294 294 294 293 292 292 291 291 291 290 290 290 289 289 289 289 288 288 288 288 288 288 288 288 288 287 287 287 287 286
Wind_Speed
13 5 5 6 6 8 8 9 8 6 7 9 9 6 5 5 2 2 2 1 1 3 6 8 6 7 7 6 9 19 20 15 14 12 12 12 11 12 13 14 15 15 15 15 15 15 16 18 18 19 19 19 19 19 19 19 19 19 19 20 19 19 19 19 19 19 18 18 18 18 18 19 18 18 18 18 19 18 18 18 18 18 18 19 21 20
12 5 5 8 7 8 10 11 6 3 5 8 9 7 6 5 3 3 2 1 1 1 4 7 7 7 7 6 6 14 16 13 15 15 14 15 15 15 15 14 14 15 16 16 16 17 17 18 18 19 21 21 22 21 21 22 21 21 21 20 20 20 21 21 20 20 19 19 18 17 17 17 17 17 17 17 16 16 16 16 16 17 16 18 19 19
8 6 7 10 9 7 10 10 4 1 5 5 7 6 6 4 4 4 2 2 1 1 1 1 3 6 6 6 8 11 13 14 18 17 15 16 16 15 15 15 15 15 16 17 17 18 19 18 18 19 21 22 23 23 23 23 23 23 23 22 22 22 22 22 21 21 20 19 18 16 15 15 15 15 15 14 14 14 14 14 13 14 15 16 17 17
5 5 6 11 11 9 10 8 4 2 4 1 5 6 5 5 5 1 2 2 0 1 1 3 2 5 5 5 8 11 11 12 15 14 13 13 13 13 13 15 16 15 16 16 16 18 19 19 20 20 21 22 23 24 24 25 25 25 24 23 23 23 23 22 22 21 20 19 17 16 15 15 15 15 14 14 14 14 14 13 12 13 14 14 15 16
5 1 2 5 9 8 7 8 5 4 3 1 1 3 5 6 4 3 5 5 1 0 1 2 4 5 6 8 7 5 5 7 10 11 11 12 14 14 14 15 16 16 16 16 15 16 19 20 20 21 22 22 23 24 24 25 26 26 25 24 24 24 24 23 22 21 21 19 18 17 17 17 17 17 16 15 15 14 14 13 13 14 14 14 14 15
4 1 2 2 7 7 6 6 6 5 3 0 1 0 5 7 7 8 8 5 3 2 3 2 1 5 5 10 8 4 3 5 6 8 10 11 13 14 15 15 16 17 18 17 16 18 19 20 21 22 23 24 24 24 24 24 25 25 25 24 24 24 24 23 22 21 21 20 20 20 19 19 19 18 18 17 15 14 14 13 13 14 15 16 17 16
2 0 1 3 7 7 6 5 6 6 4 3 2 2 6 10 9 10 9 5 3 3 2 2 4 4 5 4 6 6 5 5 5 6 9 10 9 9 10 12 14 15 16 16 17 18 20 21 21 22 23 24 25 26 26 25 25 25 24 24 23 24 24 24 23 21 20 20 20 20 19 18 18 18 17 16 14 14 13 13 14 15 15 16 17 17
2 1 1 3 5 5 6 4 5 6 4 2 3 3 7 11 8 9 8 4 2 2 2 2 2 1 5 4 3 8 7 5 5 6 8 11 9 8 9 10 11 13 14 13 14 16 18 19 20 22 22 23 25 26 26 26 26 25 24 23 23 23 23 23 22 21 19 18 17 18 18 18 18 17 16 14 13 14 14 14 14 14 14 14 14 14
2 3 2 4 5 3 4 1 3 4 3 2 5 2 5 9 7 7 6 3 1 3 1 3 1 1 5 5 1 5 6 6 7 8 8 11 11 9 9 9 9 11 12 11 13 14 16 17 18 19 19 19 19 21 22 24 25 25 24 24 23 23 23 22 21 19 17 16 16 17 18 19 18 17 15 13 13 14 13 12 13 12 13 13 14 13
2 1 0 2 4 3 2 2 4 0 3 4 5 1 6 6 5 5 5 4 3 2 2 5 3 1 4 4 3 3 3 6 8 6 8 12 12 10 8 8 7 9 10 12 13 12 13 14 14 14 13 13 13 15 17 19 21 23 23 23 23 23 22 19 18 17 15 15 16 17 18 17 16 14 13 12 12 12 10 10 10 11 11 11 11 12
1 2 3 2 2 2 4 2 4 2 6 6 4 5 7 6 4 4 3 5 4 1 3 3 1 2 3 4 4 4 3 5 6 6 7 10 12 10 8 8 6 7 9 11 11 11 11 11 12 11 10 11 11 12 13 15 17 19 20 21 21 21 19 17 16 16 15 16 16 16 15 13 11 9 8 8 8 7 6 6 6 6 7 7 8 8
2 3 2 2 1 2 5 4 6 3 6 6 4 5 5 4 4 5 3 3 2 3 3 3 4 1 3 5 2 3 3 1 4 8 7 9 12 11 10 9 8 7 8 9 10 10 11 11 11 11 11 12 12 12 12 12 13 13 14 14 14 14 13 14 15 14 14 14 13 11 8 7 6 5 3 2 2 1 1 2 3 3 4 5 5 6
3 2 1 1 2 3 3 4 4 4 2 2 5 6 5 2 1 1 1 1 2 3 3 2 3 1 4 6 5 5 4 2 4 10 12 13 15 13 12 12 11 10 10 11 12 12 13 13 13 13 13 13 13 12 12 12 12 12 11 11 10 10 10 11 11 10 9 9 8 6 6 5 5 4 4 3 2 1 1 0 2 3 4 5 6 7
2 1 1 2 1 4 2 3 4 1 2 3 6 5 5 4 2 2 3 2 2 2 3 3 2 2 3 5 6 3 4 7 10 13 15 15 16 14 13 13 12 12 12 13 15 15 15 15 15 15 15 14 14 14 13 13 14 14 13 13 12 12 12 11 11 10 10 11 10 10 10 9 8 7 6 4 2 1 0 1 3 4 5 6 7 7
3 0 2 1 1 3 1 1 3 4 3 4 4 5 4 5 4 4 4 3 3 1 2 3 1 3 3 2 2 3 8 11 13 15 15 14 15 14 13 13 13 13 13 15 16 16 17 17 17 17 17 17 17 17 16 15 15 15 15 15 14 14 15 14 14 14 14 14 13 12 10 9 7 5 4 3 1 1 2 2 3 4 4 5 5 6
6 2 1 1 2 1 1 2 2 4 4 3 2 4 2 3 4 3 2 4 5 2 0 2 2 4 3 1 2 6 9 10 10 12 14 13 13 13 13 12 13 13 14 16 17 18 19 19 20 20 19 19 18 18 17 17 17 17 17 17 17 17 17 17 16 15 14 12 11 9 8 6 5 4 3 2 1 1 1 2 2 3 3 4 5 6
6 1 3 2 2 3 1 2 3 2 3 1 3 3 4 3 6 5 1 0 3 2 2 3 2 4 1 0 2 5 6 5 7 8 10 12 13 13 13 12 13 14 16 17 18 19 20 21 21 20 19 19 18 19 19 19 19 19 19 19 19 18 17 16 14 12 11 10 8 7 6 5 5 4 3 2 2 1 1 2 2 2 3 4 5 6
5 3 3 1 2 2 1 1 2 2 2 3 3 4 3 2 3 4 1 2 2 1 2 3 4 4 1 2 2 4 5 4 6 7 9 12 13 14 13 13 14 16 17 19 20 21 21 21 21 20 20 20 20 21 21 21 21 20 19 18 17 16 14 13 11 10 9 8 7 7 6 6 5 4 4 3 3 3 2 1 2 3 4 5 6 7
5 4 2 3 1 1 2 1 2 1 3 3 2 2 2 1 1 1 2 2 2 2 2 3 5 4 4 4 4 6 8 8 7 7 8 11 14 15 15 15 16 17 19 20 21 22 22 22 21 21 22 23 22 22 21 20 19 18 17 15 14 13 12 11 10 10 9 8 8 7 6 6 6 5 5 4 3 2 2 1 2 3 4 6 7 8
4 4 1 3 2 1 2 0 4 2 1 1 1 1 2 2 3 3 3 3 3 3 3 2 1 3 6 6 8 11 11 10 10 9 8 12 17 17 18 18 18 20 21 22 23 23 23 23 24 24 24 23 22 21 19 18 17 16 15 14 13 13 12 12 11 10 10 9 9 8 7 7 6 5 5 4 3 2 2 2 3 4 5 6 7 8
3 3 3 1 3 0 1 1 4 5 4 2 2 3 2 1 2 1 2 2 4 4 3 2 2 5 5 3 7 12 12 11 12 10 9 15 19 19 19 21 22 22 23 24 25 25 25 26 25 25 23 21 20 19 18 17 16 16 15 15 14 13 13 12 12 11 10 10 9 9 8 8 7 6 5 4 3 2 1 1 2 3 5 6 7 8
1 3 5 3 1 2 1 2 1 2 4 3 3 5 4 3 4 2 2 1 2 2 3 3 3 6 4 2 1 5 7 9 15 14 12 18 21 20 21 23 24 25 25 25 26 26 26 26 25 24 22 20 19 18 18 17 17 16 15 14 14 13 13 12 12 11 10 10 10 9 9 8 7 6 5 4 3 1 0 1 2 4 5 6 8 9
3 4 5 3 2 2 0 1 2 1 1 2 1 3 4 4 4 4 3 3 1 1 1 2 2 6 4 3 5 3 3 5 19 20 16 20 23 22 23 24 25 26 26 26 27 27 27 26 24 23 21 20 20 19 19 18 17 16 15 14 14 13 13 12 12 12 11 10 10 9 8 8 6 5 4 3 2 1 1 2 3 4 5 6 8 9
3 4 4 3 2 1 2 0 1 1 0 1 3 4 4 4 4 4 3 2 2 2 2 2 4 6 4 4 5 5 7 0 18 25 21 21 22 23 25 26 25 26 26 26 27 27 26 25 24 23 22 21 21 20 19 18 17 16 16 15 14 14 13 13 12 12 11 10 10 9 8 7 6 5 3 2 1 1 1 2 3 4 6 8 9 11
4 3 4 4 2 1 2 1 1 2 2 2 3 4 3 3 5 3 0 2 1 4 6 5 5 6 4 5 6 5 5 3 11 22 23 23 23 24 26 27 27 27 27 28 28 27 27 26 25 25 24 23 22 21 20 18 17 17 16 15 15 14 14 14 13 12 11 10 10 9 8 6 5 5 3 2 2 1 2 3 5 6 8 10 11 13
6 3 5 5 5 5 4 4 4 3 2 1 1 4 5 5 7 5 2 2 3 5 6 5 5 6 4 4 4 3 1 2 7 16 21 24 25 27 28 30 30 31 30 30 30 29 28 28 27 27 25 24 22 21 20 19 18 17 16 16 16 15 14 14 13 12 11 10 9 8 8 7 6 5 4 3 1 1 3 5 7 8 10 12 14 16
3 2 6 7 8 9 8 7 6 6 5 5 6 8 9 9 9 6 4 4 6 4 4 6 7 6 5 3 3 4 4 5 6 12 18 21 25 28 31 32 33 33 33 32 32 31 30 30 28 27 26 24 23 21 20 20 19 18 17 16 16 15 14 13 13 12 11 10 10 9 8 7 6 5 3 1 1 3 5 7 10 11 13 15 16 18
3 2 7 9 10 9 7 7 8 10 9 12 13 13 12 10 9 7 5 9 7 4 5 8 7 9 8 6 7 8 6 6 6 12 19 23 26 29 31 31 32 33 33 32 32 33 32 31 30 28 27 25 24 23 22 20 19 19 18 17 17 15 15 14 13 13 12 11 11 9 8 7 5 3 2 2 3 6 8 10 12 13 15 16 18 19
3 5 6 7 9 7 3 5 9 12 10 10 12 14 13 12 11 11 12 13 8 6 10 12 11 12 10 7 8 9 10 12 15 20 22 23 25 27 29 30 31 32 33 33 34 34 34 33 31 29 28 27 25 23 22 21 20 20 19 18 17 16 16 15 15 14 13 12 11 9 8 6 4 2 2 3 5 7 9 11 13 14 16 17 18 20
2 4 4 6 8 7 2 4 4 8 8 8 10 11 12 13 13 14 15 16 13 11 13 13 10 11 9 7 8 11 17 20 20 21 20 20 24 27 29 31 32 33 35 36 36 36 35 33 32 30 29 27 26 24 24 23 22 21 20 19 18 18 17 16 16 15 14 12 10 9 7 5 3 2 3 4 6 8 10 12 14 15 17 18 19 20
1 3 2 5 4 5 2 3 2 3 3 5 6 8 11 12 13 14 14 15 12 11 13 12 9 11 9 7 6 10 16 17 15 18 21 22 26 29 31 33 34 36 38 38 38 37 36 34 32 31 30 28 27 27 26 25 23 22 21 20 20 19 18 17 16 15 13 11 10 8 6 5 3 3 4 5 7 9 11 13 15 17 18 19 20 21
2 1 1 4 4 4 1 2 3 6 6 2 2 6 11 12 12 13 13 12 10 10 12 11 9 12 9 6 5 7 14 16 16 20 23 24 27 30 33 35 37 38 40 40 40 38 37 37 35 33 32 30 29 28 27 25 24 23 22 22 21 20 19 17 16 14 12 11 9 7 6 4 3 3 5 7 9 11 13 15 17 18 20 21 22 23
5 4 1 2 5 3 4 0 5 6 4 3 6 9 13 13 12 11 9 11 12 11 10 9 11 13 8 6 6 6 9 13 17 22 23 24 28 33 35 37 39 41 42 43 42 41 39 38 37 35 33 31 30 28 26 25 24 24 23 22 21 20 19 17 15 13 11 10 8 7 5 4 4 4 6 8 11 13 15 16 18 20 21 22 23 25
7 7 4 3 4 1 4 1 5 4 5 8 6 10 14 14 13 11 10 13 14 12 10 10 12 11 6 7 8 8 11 16 21 24 24 24 27 31 35 37 38 40 40 39 40 40 40 39 37 35 33 31 30 29 27 26 25 24 23 23 22 20 19 17 15 13 11 9 8 6 5 4 4 5 7 10 12 14 16 18 20 21 23 24 25 27
9 8 6 5 3 1 1 2 3 5 9 6 1 6 12 13 12 12 13 15 15 13 13 13 12 10 8 10 13 16 19 22 23 23 22 22 25 29 32 35 38 38 38 38 40 41 41 41 39 36 34 33 31 30 28 26 25 24 24 23 22 20 19 17 15 13 11 9 7 5 4 4 5 6 9 11 13 15 18 19 21 23 25 26 27 28
9 8 5 4 3 3 3 4 6 6 4 2 1 2 5 7 8 9 11 14 13 11 11 13 15 15 14 14 13 14 16 18 19 22 24 24 25 27 28 31 34 36 38 41 43 44 44 42 40 38 36 34 32 30 28 26 26 25 24 24 22 20 19 17 15 13 10 8 7 5 5 5 6 8 10 12 15 17 19 21 23 25 26 27 28 29
7 8 5 4 5 4 4 5 4 5 6 5 6 4 5 7 8 8 8 11 11 12 12 13 15 16 14 13 11 9 9 9 10 17 25 25 24 26 27 27 30 33 37 40 41 42 42 41 40 38 36 33 32 30 28 27 27 26 25 24 22 21 19 16 14 12 10 8 6 5 5 6 7 9 12 14 16 18 20 22 24 25 27 28 29 29
3 5 5 5 4 4 4 3 2 3 9 11 7 5 9 11 9 8 6 9 8 13 18 15 14 14 11 8 10 10 8 4 4 13 24 27 25 25 26 26 28 30 34 37 38 39 40 39 38 37 35 33 31 30 29 28 27 26 26 24 23 20 18 15 13 11 9 7 6 5 6 7 9 11 14 16 17 19 21 22 24 26 27 28 29 30
3 2 4 4 3 4 5 4 5 7 10 10 4 5 11 17 13 11 5 11 7 12 20 17 13 14 12 12 15 13 7 4 7 14 21 22 23 25 26 27 27 27 30 35 37 39 39 38 38 37 34 32 31 30 29 28 28 27 26 24 22 20 17 15 13 11 9 7 6 6 7 8 11 13 15 16 18 19 21 22 24 25 26 27 28 29
1 2 2 4 4 5 5 5 5 5 7 6 6 7 14 22 18 11 4 11 4 11 21 22 18 19 20 20 19 12 7 9 10 9 9 9 15 22 25 25 25 26 29 32 34 36 37 37 37 37 34 32 31 30 30 29 28 27 26 23 21 19 17 14 12 10 8 6 6 6 8 9 11 13 15 16 18 19 21 23 24 25 26 26 27 29
2 1 2 5 5 5 6 5 4 4 5 5 6 10 19 22 13 6 8 7 1 8 15 19 21 24 24 21 20 15 14 16 11 5 3 5 9 17 21 22 23 24 27 30 32 33 34 35 37 37 34 33 32 31 30 30 28 27 25 23 21 18 16 13 11 9 7 6 6 6 8 10 12 14 15 16 18 19 21 22 23 24 25 27 28 30
4 3 3 5 5 5 4 3 3 5 6 5 6 10 17 14 4 7 7 3 3 4 5 7 12 15 14 15 21 21 19 17 13 9 7 8 10 13 16 19 21 23 26 28 30 32 34 35 36 36 35 33 32 31 30 29 28 26 24 23 20 17 15 12 10 8 7 6 6 7 9 11 12 14 15 16 18 19 20 21 22 24 26 27 29 31
6 5 4 5 5 4 3 4 5 7 4 14 15 6 6 5 3 6 7 5 4 5 3 1 2 3 5 10 17 20 18 15 15 14 12 12 12 13 14 16 19 22 24 26 29 31 33 34 35 36 35 33 32 31 30 29 27 26 24 22 19 16 13 12 10 8 7 6 7 8 10 11 12 14 15 17 19 20 20 21 22 24 26 28 30 31
5 6 5 4 5 6 5 7 6 4 9 21 14 5 9 8 3 7 11 8 8 9 8 7 6 4 1 4 9 14 16 15 15 15 14 14 14 14 15 15 17 19 22 25 27 30 31 33 34 35 34 33 32 30 29 29 27 26 24 21 17 15 13 12 10 8 7 7 8 9 10 11 13 14 16 18 19 19 20 21 23 25 27 28 30 31
6 5 4 4 6 5 5 6 5 4 14 16 3 1 16 16 7 11 14 12 11 9 7 7 6 5 5 2 2 8 12 14 15 15 15 14 14 14 14 14 15 18 21 23 26 28 30 32 33 34 33 32 31 30 29 28 26 24 22 19 17 15 13 11 9 8 8 8 9 9 11 12 14 15 17 17 18 19 20 22 24 26 27 28 29 31
2 2 3 2 4 4 3 4 4 5 12 11 2 4 17 17 10 12 11 9 8 7 5 4 2 3 4 4 5 5 9 12 13 14 14 14 13 14 15 16 17 19 22 24 26 28 30 31 32 32 32 31 31 30 29 27 26 24 21 18 16 14 12 11 9 9 8 9 10 11 12 13 14 15 16 17 18 19 21 23 25 27 28 29 30 32
2 3 2 2 4 5 4 3 5 5 9 11 5 4 10 10 7 6 3 1 2 3 2 3 5 6 5 6 7 8 10 12 13 14 15 15 15 16 17 18 20 21 23 24 26 28 30 31 31 31 31 31 31 31 29 27 26 23 20 17 15 14 12 10 10 9 9 10 11 12 13 14 14 15 15 16 18 20 22 24 26 27 29 30 32 34
2 5 3 2 5 5 2 2 6 6 7 8 6 4 3 4 7 7 6 5 3 3 4 6 8 9 9 10 9 10 12 13 15 16 16 17 18 18 19 19 20 22 23 24 26 27 29 30 31 31 31 31 31 30 29 27 24 20 18 16 15 13 12 11 10 10 11 11 12 13 13 14 14 15 16 17 19 21 23 24 26 27 29 30 33 36
6 6 4 3 4 2 0 2 5 4 2 1 1 1 1 3 6 6 6 6 6 7 7 8 10 11 12 12 11 11 13 15 16 16 16 18 19 19 19 20 21 22 23 24 26 28 29 30 31 31 31 31 30 29 27 25 21 19 17 16 14 13 12 11 11 11 12 12 12 13 13 14 15 16 17 19 20 22 23 25 26 28 29 31 33 36
6 4 3 4 4 3 2 2 3 4 2 3 7 8 7 5 3 5 6 7 9 10 11 11 12 12 12 12 12 12 13 14 14 14 15 16 17 18 19 19 21 22 24 26 27 29 30 30 30 30 30 30 29 27 25 23 20 18 17 15 14 13 13 12 12 12 12 12 13 13 14 15 15 16 18 20 22 23 24 25 26 28 30 32 34 36
4 3 3 5 4 3 3 5 7 10 8 6 10 11 10 8 7 6 5 6 7 8 9 10 10 10 9 9 11 12 13 12 11 12 13 14 16 17 18 19 21 23 25 27 29 30 31 31 31 31 30 30 29 27 24 21 19 18 17 15 14 14 13 13 13 12 12 13 14 14 15 15 15 17 19 20 22 24 26 26 27 29 31 33 35 37
Wind_Direction
183 164 185 201 203 199 210 226 223 209 191 168 174 200 180 163 150 101 118 298 49 150 218 224 225 243 238 232 194 179 182 190 196 201 206 206 206 207 205 203 203 203 206 209 213 219 226 229 230 231 230 230 232 234 236 236 236 235 234 237 238 239 240 241 242 243 245 244 244 245 245 246 247 250 252 253 257 261 264 266 265 267 271 272 268 267
179 196 202 197 212 198 205 227 223 244 236 178 172 196 189 169 146 75 91 202 26 94 220 218 228 247 235 254 234 178 176 196 203 205 210 211 211 214 214 209 203 203 207 210 212 217 226 233 234 235 235 234 236 237 238 238 238 238 238 238 240 240 241 243 244 245 246 248 250 251 252 254 254 255 255 255 257 259 260 261 263 267 270 270 268 268
184 216 195 191 218 210 207 220 189 254 261 192 167 178 190 172 118 71 60 125 107 113 245 175 232 260 243 241 245 209 198 203 203 205 209 210 208 208 209 204 200 204 212 217 218 221 227 232 235 235 236 236 238 238 237 238 238 237 238 238 238 240 241 243 244 246 246 248 251 254 257 258 258 258 257 258 261 262 264 266 266 266 266 267 267 266
186 206 198 192 209 215 206 201 160 211 262 214 149 154 172 162 133 134 183 152 172 156 80 11 305 266 256 244 239 224 212 194 190 196 199 201 198 194 193 193 199 206 214 221 225 230 231 230 232 233 235 236 236 237 236 236 236 236 236 236 236 237 240 242 243 246 245 246 248 250 250 252 256 257 254 254 254 258 264 269 270 268 267 267 264 263
180 193 293 201 196 201 186 181 177 181 216 295 125 139 155 156 126 103 143 145 74 22 164 348 319 281 225 218 230 212 179 167 176 191 206 216 214 212 211 208 213 218 220 225 227 234 238 235 233 232 234 235 235 236 236 235 236 236 236 234 234 236 237 239 241 244 244 242 243 243 241 244 250 254 254 252 250 252 256 259 263 265 267 265 262 262
189 239 327 180 180 182 164 178 193 175 175 183 354 172 147 141 109 107 132 128 92 261 242 128 359 291 233 201 203 172 147 166 169 190 210 223 227 227 229 228 230 233 234 233 228 230 238 241 239 236 234 235 236 236 236 236 236 236 236 234 233 234 235 238 240 242 243 241 241 243 246 249 253 255 253 251 249 250 253 256 257 258 258 258 259 258
160 288 292 184 175 173 171 194 197 176 170 169 241 305 119 123 116 129 150 141 126 214 266 108 158 265 292 216 180 157 162 168 163 196 194 189 207 218 218 222 229 235 237 236 231 230 234 239 242 241 238 236 236 235 234 235 236 236 236 235 234 233 234 236 239 240 242 243 242 245 250 254 256 253 249 247 246 248 253 256 256 257 259 258 259 259
100 107 254 182 156 158 170 196 209 185 171 188 272 322 110 122 131 146 155 155 153 142 32 358 152 198 301 285 166 145 154 165 178 211 187 169 182 191 198 214 222 229 234 233 231 229 230 233 237 240 240 238 237 236 235 233 234 235 235 235 235 234 233 235 238 240 241 244 246 246 248 248 249 247 241 237 241 247 250 252 255 260 266 270 272 271
56 151 174 146 136 156 170 234 263 181 144 241 270 287 126 129 138 147 142 135 101 82 26 272 162 139 269 267 153 130 156 192 198 200 182 169 176 179 188 209 218 224 226 223 224 224 223 225 229 235 237 239 239 237 235 231 230 232 233 234 235 235 235 235 238 242 242 244 244 241 241 241 243 241 232 227 235 248 256 259 265 272 278 284 287 286
354 155 46 123 144 159 139 3 316 55 111 205 230 34 81 97 110 128 128 111 76 66 225 230 175 149 266 250 188 156 200 217 203 183 167 165 169 176 184 192 207 218 212 210 217 219 215 215 219 225 227 228 229 228 228 225 223 225 227 229 231 233 234 235 238 240 236 234 233 233 234 236 238 237 230 230 240 254 266 273 278 285 291 296 299 300
317 59 31 43 120 147 129 74 346 45 124 147 150 78 65 51 45 55 74 87 78 268 243 260 37 102 267 259 190 185 236 218 179 155 149 156 163 173 179 176 184 198 198 202 209 205 199 199 202 204 205 204 205 207 208 209 211 214 218 222 226 230 230 227 226 226 223 222 225 228 230 231 233 233 233 239 249 263 278 288 294 299 305 309 311 315
58 52 38 45 11 169 131 78 13 44 121 121 120 111 81 32 28 32 10 58 105 237 254 309 346 52 229 257 218 205 261 307 149 158 157 155 161 167 166 162 166 174 179 183 184 182 181 183 184 184 185 185 185 188 188 189 193 197 203 209 213 217 216 212 211 214 214 216 220 223 222 219 216 217 219 227 246 278 312 316 315 318 326 330 330 333
74 59 104 75 288 230 146 93 37 4 4 117 138 127 102 78 60 68 257 177 188 243 267 297 325 295 232 244 247 225 210 34 92 151 160 157 158 162 164 163 162 162 165 166 166 168 170 171 173 173 172 171 168 168 169 168 168 167 170 174 178 183 187 191 195 196 194 191 188 181 169 160 153 143 135 125 123 124 112 330 330 338 342 344 343 344
85 26 158 89 297 236 201 123 137 232 273 176 154 139 130 135 137 177 188 190 216 255 286 287 294 271 260 264 267 246 142 92 92 130 152 157 158 161 165 168 164 162 166 168 166 166 167 166 165 163 159 156 153 152 153 153 152 151 151 152 156 159 160 162 162 157 153 150 145 141 138 135 133 130 133 135 143 156 320 328 335 340 342 345 346 347
142 197 196 132 165 197 183 134 155 154 171 193 168 142 148 156 159 175 171 170 185 216 316 300 266 196 209 244 258 77 89 91 97 120 137 145 155 160 161 166 166 166 169 170 169 167 165 162 158 156 152 149 147 145 145 145 144 143 143 144 146 147 145 143 142 140 138 137 135 135 134 134 136 138 146 158 184 263 322 331 337 343 348 352 356 357
156 174 269 290 300 133 129 314 355 123 163 231 137 113 175 188 144 134 163 169 153 114 311 231 241 219 196 158 126 99 89 96 110 124 131 139 153 158 157 160 165 169 171 171 170 167 163 159 156 153 150 148 146 145 145 144 144 143 141 140 141 139 137 136 136 135 135 136 136 138 140 144 150 155 167 187 217 278 337 359 6 10 9 4 1 355
152 144 329 319 350 26 86 317 357 116 188 205 118 160 208 163 112 114 182 33 112 136 214 190 259 280 276 59 161 123 102 110 135 141 143 150 159 158 155 159 167 172 172 171 170 165 161 158 155 153 151 150 148 147 147 145 143 141 138 138 138 136 136 136 137 138 139 142 145 149 155 160 165 169 172 170 151 118 86 62 33 13 3 355 351 348
145 105 335 351 45 3 336 347 44 61 77 110 149 198 186 73 67 117 132 25 85 212 225 171 209 246 219 225 231 158 155 183 183 171 159 160 165 162 159 165 173 175 173 172 170 165 163 161 159 158 155 152 150 148 147 144 142 141 139 140 140 140 141 141 142 146 148 152 158 161 165 164 163 162 153 145 134 117 101 73 25 9 4 360 359 356
119 103 341 344 16 285 332 60 140 29 34 117 190 219 122 94 282 168 164 160 157 200 249 236 219 220 208 201 200 198 201 199 190 185 170 168 174 169 164 171 178 178 177 175 172 170 168 166 164 161 156 153 152 149 148 146 144 144 144 145 147 148 149 150 152 156 158 160 163 162 161 158 153 150 145 140 135 123 104 67 35 21 13 7 2 358
105 117 197 313 315 266 347 85 179 198 4 91 3 25 80 141 175 175 190 177 151 178 228 271 243 242 240 204 184 197 204 189 181 189 182 177 180 174 171 178 182 180 178 176 175 174 171 169 165 162 159 156 155 153 152 151 151 152 153 154 157 158 158 158 160 161 161 159 159 157 154 151 148 148 148 146 139 124 97 54 28 18 9 2 356 352
92 101 137 273 323 293 197 225 189 174 172 168 139 154 172 160 130 136 247 174 131 165 208 217 247 260 255 212 186 196 197 186 181 184 181 179 180 178 179 184 183 179 178 177 176 174 171 169 167 164 163 161 160 159 158 160 161 162 162 161 162 163 162 162 160 160 161 158 156 155 152 151 151 149 148 146 142 130 95 41 15 8 1 353 350 347
96 94 125 143 181 176 187 324 17 135 165 166 168 181 178 153 126 121 264 251 122 154 184 173 240 270 260 348 346 196 189 186 181 176 176 177 178 180 184 187 183 179 178 177 175 174 173 171 170 168 168 167 167 167 166 168 168 167 167 165 165 165 163 163 161 160 161 160 159 159 157 155 153 150 148 145 146 145 101 17 360 359 355 347 343 342
101 92 108 123 162 169 132 6 57 74 150 140 212 206 164 162 164 154 202 233 181 158 124 139 254 275 263 1 12 358 341 193 180 175 173 175 178 181 184 186 184 181 180 179 178 177 176 175 174 174 174 174 174 175 173 172 172 171 170 168 168 168 165 164 164 163 164 165 164 164 163 161 158 157 155 148 136 78 22 359 354 351 346 342 340 340
117 97 108 95 47 12 353 21 75 7 49 166 248 215 170 185 187 163 175 173 154 172 140 147 255 268 278 358 10 345 347 140 175 174 171 172 176 181 184 185 184 184 184 183 182 182 180 180 180 179 180 180 180 180 178 176 176 175 174 172 172 171 169 168 167 168 169 169 170 169 168 167 164 161 158 157 158 7 357 347 349 348 344 344 344 344
163 127 122 114 93 31 352 332 314 298 220 217 234 192 149 109 113 116 145 86 130 209 171 161 236 257 281 343 359 348 1 55 162 171 172 172 175 180 183 185 186 187 187 186 186 185 184 183 184 184 185 185 183 183 181 180 180 179 177 176 175 174 173 172 172 173 174 175 176 174 171 171 168 170 179 188 202 288 339 345 349 350 350 349 346 344
160 161 142 139 159 179 194 206 210 201 186 227 246 176 171 156 144 152 173 152 224 223 175 173 230 260 300 332 342 335 16 105 155 169 175 177 179 182 184 187 190 191 190 189 189 187 186 187 188 188 188 187 186 186 185 184 183 182 181 179 178 179 178 177 177 178 180 180 179 177 174 176 178 183 192 195 204 327 344 346 348 349 348 345 342 340
133 197 175 177 190 195 204 207 172 130 138 185 201 195 193 192 181 160 137 182 209 208 196 214 228 250 281 270 253 252 208 197 187 171 173 178 182 185 188 190 192 193 193 192 191 190 189 190 191 191 191 190 189 189 188 189 187 185 185 183 182 182 182 183 184 184 184 182 180 180 179 182 186 188 191 203 303 339 342 343 344 344 342 340 337 334
94 213 198 200 208 208 207 199 166 150 172 195 198 198 197 193 184 169 189 215 200 172 231 239 226 237 242 205 215 233 208 202 207 184 180 184 187 188 189 191 193 194 195 195 194 193 192 193 194 193 193 192 193 192 191 191 190 188 188 187 185 186 187 188 188 186 184 182 181 183 183 184 187 193 219 301 329 337 340 340 340 339 337 335 332 330
118 200 209 206 219 227 192 162 166 171 187 197 195 199 197 187 181 188 213 224 199 178 232 234 216 228 237 207 210 218 196 195 202 195 190 189 188 189 189 191 193 195 197 198 197 197 196 197 196 194 195 194 194 194 193 193 193 191 190 190 189 190 191 189 188 186 185 184 185 185 186 189 199 224 281 318 330 334 335 334 334 334 333 331 329 328
118 198 205 187 218 239 172 118 156 175 190 204 200 197 190 186 191 199 214 225 217 213 235 239 233 244 241 203 212 220 207 204 201 194 192 190 189 190 190 192 195 197 200 201 200 200 199 199 199 197 196 196 195 196 196 195 194 192 192 193 193 192 191 189 188 187 186 187 188 189 192 201 217 254 297 318 326 329 330 331 331 331 331 330 329 329
116 216 190 151 207 247 157 92 66 110 156 203 206 190 179 183 198 208 218 227 225 228 244 255 265 270 248 203 218 224 201 192 185 185 192 195 193 191 191 195 199 201 203 204 202 202 202 201 201 200 198 197 197 198 199 197 195 195 195 195 195 193 191 189 188 188 188 190 191 195 202 212 230 270 302 317 325 328 330 331 331 332 332 332 331 330
121 258 26 114 177 237 225 127 114 73 60 15 254 193 178 182 197 208 216 219 211 216 238 249 255 259 247 198 208 207 175 170 178 185 193 197 195 195 196 199 203 204 205 206 205 204 204 203 203 202 200 199 200 200 201 199 198 198 198 197 195 193 191 189 188 190 191 193 196 201 208 219 245 284 310 321 328 331 333 334 334 334 334 333 332 331
139 139 70 142 179 241 328 109 126 86 58 270 244 204 189 192 200 206 219 223 212 205 215 226 233 244 236 171 189 210 173 175 189 192 196 199 198 201 205 206 208 209 209 208 207 206 205 206 205 203 201 201 202 203 203 202 202 201 199 197 195 192 190 189 190 193 195 196 200 205 214 234 268 302 320 328 332 334 335 335 335 334 334 334 333 332
160 165 175 176 175 259 320 18 102 113 222 237 227 195 195 200 197 197 217 222 214 209 213 224 236 244 227 173 186 205 196 197 203 204 209 211 207 208 211 213 214 214 211 210 209 208 208 208 206 203 203 203 204 204 203 203 203 201 199 196 194 192 191 191 194 197 199 200 203 211 230 260 292 316 326 331 334 335 335 336 335 335 335 334 333 332
169 174 176 179 174 155 21 74 122 207 231 244 221 181 199 206 198 201 222 226 218 214 222 237 251 250 229 205 201 210 216 214 211 212 218 222 220 218 218 220 220 217 213 213 213 212 212 210 206 203 203 204 204 204 204 202 201 199 197 195 193 192 193 195 198 200 201 204 210 226 252 280 306 320 329 333 335 336 336 336 335 335 334 334 333 331
168 173 171 172 163 131 125 168 203 241 271 303 330 193 192 197 194 205 236 243 230 215 215 231 243 245 238 229 219 219 224 220 215 219 226 228 227 226 227 229 228 223 221 222 221 217 215 213 210 206 205 204 204 203 203 202 200 199 196 194 194 194 196 198 200 201 203 210 222 242 265 290 313 324 331 335 336 336 336 336 335 334 333 332 330 328
157 168 172 176 179 175 173 193 227 305 312 260 235 212 175 176 180 189 231 251 232 210 211 223 237 244 242 235 224 205 199 205 218 228 228 225 226 230 234 241 241 234 230 227 223 220 218 215 211 207 205 204 203 203 203 201 199 198 197 196 196 197 198 199 199 202 208 218 233 255 280 302 320 328 333 335 336 336 336 335 334 333 331 328 326 325
109 160 176 187 194 175 164 183 207 252 255 244 225 174 178 186 172 154 199 255 240 207 210 219 232 240 234 210 194 177 167 183 250 241 231 225 226 232 236 239 239 236 230 224 221 218 217 215 211 208 206 205 203 203 202 201 199 198 198 198 198 198 198 198 200 205 214 227 245 269 293 311 324 331 334 336 336 335 335 333 332 330 328 325 324 324
45 68 140 164 187 174 176 201 196 209 246 246 197 156 181 180 155 121 176 257 251 195 206 218 228 234 227 197 180 165 149 199 245 248 242 235 233 236 237 234 232 230 227 225 224 222 218 215 211 207 205 205 204 202 201 201 200 199 199 198 197 197 197 198 203 212 221 236 258 282 304 319 327 332 334 335 334 333 331 330 328 327 325 324 323 323
78 36 118 169 200 190 186 214 218 229 255 230 184 181 175 163 141 117 206 257 244 172 200 215 218 226 228 209 187 169 178 220 240 257 254 239 235 237 237 235 231 227 223 222 222 222 220 216 211 207 205 205 205 203 202 201 200 199 198 198 197 197 198 202 208 217 228 246 267 290 311 322 327 330 331 331 330 329 327 326 324 323 322 321 322 323
145 157 164 188 211 203 192 220 256 261 245 215 185 170 155 145 137 160 212 245 155 166 205 216 217 226 228 207 191 193 212 225 239 262 233 213 227 231 232 231 227 225 222 219 218 218 216 214 211 208 206 205 204 203 202 200 199 198 197 197 197 197 199 205 213 222 233 253 273 295 312 321 326 327 327 326 325 324 324 322 321 320 321 322 323 323
158 171 183 190 204 210 205 216 263 268 237 172 147 158 152 144 175 217 192 150 120 162 215 226 222 233 235 214 208 214 221 227 237 244 235 231 234 232 231 229 224 221 219 217 217 216 214 210 206 204 203 202 202 202 201 199 198 198 198 198 197 198 202 209 218 226 237 256 277 298 312 318 321 321 320 320 320 319 319 319 320 321 323 324 324 324
167 165 183 194 191 197 210 192 216 269 219 136 127 144 176 175 214 180 144 118 127 129 102 88 193 222 230 224 220 218 218 224 233 238 238 237 237 238 235 229 225 223 220 217 216 215 213 210 205 202 202 201 200 201 200 199 199 198 198 198 197 200 207 213 220 228 240 259 281 298 308 312 313 314 314 315 316 316 317 319 321 323 325 325 325 325
179 172 181 204 189 180 200 203 209 243 163 147 139 177 199 192 175 139 133 114 104 101 84 69 59 53 116 215 215 213 218 226 231 235 235 232 233 235 233 229 226 226 223 220 217 214 212 209 205 201 200 199 199 200 199 199 200 198 197 197 198 203 211 215 220 230 244 264 283 295 301 304 307 309 311 313 314 315 318 320 323 325 326 326 327 327
203 190 170 188 194 184 200 212 208 171 167 165 116 143 180 178 144 128 126 106 100 103 80 68 55 29 20 7 234 217 221 227 231 234 235 233 233 234 235 232 228 226 223 220 216 212 209 207 205 201 199 197 197 198 198 198 198 197 197 199 202 207 212 216 223 236 252 270 283 291 296 301 304 307 309 311 313 315 319 321 324 325 326 327 328 328
229 186 135 140 198 214 222 191 151 141 177 184 54 107 170 172 148 134 124 92 100 114 90 72 37 352 345 329 307 264 243 239 239 240 242 239 236 233 231 229 224 222 221 218 214 210 205 202 202 201 200 198 197 197 198 198 198 198 200 202 205 210 215 220 230 244 258 271 281 288 294 298 302 305 307 310 313 318 322 325 326 326 328 329 329 330
299 178 146 128 176 197 228 189 145 147 188 198 199 163 168 176 185 195 224 324 134 133 86 24 343 329 316 314 312 295 276 264 255 251 246 241 236 231 228 226 223 220 219 215 212 208 203 200 200 201 201 200 199 198 198 199 199 200 201 204 209 214 220 227 238 250 261 271 281 288 292 296 299 302 305 310 316 321 325 327 327 327 328 330 330 329
189 167 174 199 185 185 208 167 146 147 174 191 206 214 196 210 236 254 282 292 291 335 349 336 329 322 314 313 306 291 281 271 260 255 247 238 233 230 228 227 224 220 216 212 209 206 202 201 201 202 201 201 200 199 199 200 201 201 203 208 215 220 226 235 244 255 265 274 282 287 290 295 298 303 308 314 320 323 325 326 326 326 328 329 328 327
144 159 175 176 182 199 241 145 134 116 112 134 112 66 330 281 266 277 297 302 310 327 328 319 313 307 305 306 298 286 277 265 257 252 244 237 233 230 229 227 225 221 217 212 208 205 204 204 204 203 202 201 201 201 202 202 203 205 209 214 221 226 233 242 250 260 269 276 281 287 292 297 301 307 313 318 321 324 325 325 325 325 326 327 326 325
135 168 176 151 182 220 234 196 156 132 107 44 49 53 43 24 349 321 316 312 310 309 304 299 300 301 304 305 297 282 268 258 251 242 238 237 235 233 231 228 224 221 217 213 209 206 205 204 204 203 202 202 202 203 205 205 208 212 216 221 226 233 240 248 256 264 271 279 286 291 294 298 303 309 315 319 321 322 322 322 323 324 324 324 325 324
162 191 164 148 175 180 96 77 101 120 117 76 59 57 52 48 44 30 11 349 325 311 304 300 301 305 310 310 299 280 260 249 244 239 236 236 235 235 235 233 230 226 221 216 212 209 206 204 204 203 203 204 205 206 207 209 213 218 223 227 231 238 245 252 260 269 277 283 287 289 292 297 306 313 318 321 322 321 320 319 319 321 322 323 324 324